Location: Buena Vista
(37.7110°N, 119.7938°W)
Time: 10:19:21
(UTC+00:00)

TIGRISAT - Visible Passes

Search period start: 06 October 2024 00:00
Search period end: 16 October 2024 00:00
Orbit: 591 x 666 km, 97.7° (Epoch: 05 October)

Date Brightness Start Highest point End Pass type
(mag) Time Alt. Az. Time Alt. Az. Time Alt. Az.
06 Oct ? 11:21:02 13° N 11:21:02 13° N 11:21:36 10° N visible
07 Oct ? 11:41:31 11° N 11:41:31 11° N 11:41:43 10° N visible
11 Oct ? 02:02:14 10° NW 02:02:54 10° WNW 02:03:32 10° WNW visible
15 Oct ? 01:43:27 10° NNW 01:46:04 15° WNW 01:48:39 10° W visible
